Tracking 28126 objects as of 1-Oct-2023
HD Live streaming from Space Station
objects crossing your sky now

STARLINK-3583

Track STARLINK-3583 now!
10-day predictions
STARLINK-3583 is classified as:


NORAD ID: 51876
Int'l Code: 2022-022AA
Perigee: 545.9 km
Apogee: 547.8 km
Inclination: 53.2 °
Period: 95.4 minutes
Semi major axis: 6917 km
RCS: Unknown
Launch date: March 3, 2022
Source: United States (US)
Launch site: AIR FORCE EASTERN TEST RANGE (AFETR)
Your satellite tracking list
Your tracking list is empty




NASA's NSSDC Master Catalog

Two Line Element Set (TLE):
1 51876U 22022AA  23274.53919674  .00001917  00000-0  13848-3 0  9992
2 51876  53.2178  45.1574 0001347  88.8047 271.3099 15.08846454 88733
Source of the keplerian elements: AFSPC